This demonstration page uses our WeatherBlox Daily Observations layout. Learn more.

Left ArrowRight Arrow

Hourly Observations for January 14, 2017

Temp ( °F °C ) Dew Point ( °F °C ) Humidity (%) Winds ( mph kmh ) Pressure ( in mb ) Visibility ( mi km ) Precip ( " mm )
12:00 am 00:00 Cloudy 41 5 34 1 76 76 NNE 12 19 30.39 1029 10 16 0.00 0.00
12:53 am 00:53 Cloudy 41 5 34 1.1 76 76 NE 8 13 30.30 1026 10 16 0.00 0.00
1:53 am 01:53 Cloudy with Light Rain 40 4.4 35 1.7 83 83 NNE 6 9 30.29 1026 8 13 0.00 0.03
2:53 am 02:53 Cloudy with Mist and Fog 39 3.9 37 2.8 93 93 ENE 6 9 30.29 1026 3 4 0.00 0.03
3:04 am 03:04 Cloudy with Mist and Fog 37 3 37 3 100 100 ENE 7 11 30.36 1028 2 3 0.00 0.00
3:40 am 03:40 Cloudy with Mist and Fog 37 3 37 3 100 100 ENE 6 9 30.36 1028 2 3 0.00 0.00
3:53 am 03:53 Cloudy with Mist and Fog 38 3.3 38 3.3 100 100 ENE 6 9 30.28 1025 2 3 0.00 0.00
4:14 am 04:14 Cloudy with Mist and Fog 39 3.9 38 3.3 96 96 E 6 9 30.36 1028 2 3 0.00 0.00
4:33 am 04:33 Cloudy with Mist and Fog 38 3.3 38 3.3 100 100 E 7 11 30.36 1028 2 2 0.00 0.00
4:53 am 04:53 Cloudy with Mist and Fog 38 3.3 38 3.3 100 100 E 10 17 30.27 1025 2 2 0.00 0.00
5:22 am 05:22 Cloudy with Mist and Fog 37 3 37 3 100 100 E 9 15 30.36 1028 2 3 0.00 0.00
5:53 am 05:53 Cloudy with Mist and Fog 38 3.3 38 3.3 100 100 E 6 9 30.27 1025 3 4 0.00 0.00
6:38 am 06:38 Cloudy with Mist and Fog 37 3 37 3 100 100 E 5 7 30.36 1028 2 3 0.00 0.00
6:53 am 06:53 Cloudy with Mist and Fog 39 3.9 39 3.9 100 100 E 3 6 30.28 1026 2 3 0.00 0.00
7:17 am 07:17 Cloudy with Mist and Fog 38 3.3 38 3.3 100 100 Calm 30.36 1028 2 3 0.00 0.00
7:37 am 07:37 Cloudy with Mist and Fog 39 3.9 39 3.9 100 100 E 3 6 30.36 1028 2 2 0.00 0.00
7:53 am 07:53 Cloudy with Mist and Fog 39 3.9 39 3.9 100 100 Calm 30.29 1026 2 3 0.00 0.00
8:13 am 08:13 Cloudy with Mist and Fog 39 3.9 39 3.9 100 100 Calm 30.36 1028 3 4 0.00 0.00
8:31 am 08:31 Cloudy with Mist and Fog 39 3.9 39 3.9 100 100 Calm 30.36 1028 2 3 0.00 0.00
8:39 am 08:39 Cloudy with Mist and Fog 39 3.9 39 3.9 100 100 Calm 30.36 1028 2 3 0.00 0.00
8:53 am 08:53 Cloudy with Mist and Fog 39 3.9 39 3.9 100 100 Calm 30.30 1026 2 2 0.00 0.00
9:33 am 09:33 Cloudy with Mist and Fog 40 4.4 39 3.9 97 97 ENE 6 9 30.39 1029 2 3 0.00 0.00
9:40 am 09:40 Cloudy with Mist and Fog 39 4 39 4 100 100 ENE 6 9 30.39 1029 3 4 0.00 0.00
9:53 am 09:53 Cloudy with Mist and Fog 40 4.4 39 3.9 97 97 ENE 7 11 30.32 1027 2 3 0.00 0.00
10:25 am 10:25 Cloudy with Mist and Fog 40 4.4 40 4.4 100 100 ENE 6 9 30.39 1029 2 3 0.00 0.00
10:37 am 10:37 Cloudy with Light Rain 40 4.4 40 4.4 100 100 NE 6 9 30.39 1029 2 3 0.00 0.03
10:53 am 10:53 Cloudy with Light Rain 40 4.4 39 3.9 97 97 NE 8 13 30.33 1027 2 2 0.00 0.03
11:05 am 11:05 Cloudy with Mist and Fog 39 4 39 4 100 100 NE 7 11 30.39 1029 3 5 0.00 0.00
11:53 am 11:53 Cloudy with Mist and Fog 40 4.4 39 3.9 97 97 NNE 5 7 30.31 1027 4 6 0.00 0.03
12:14 pm 12:14 Cloudy with Mist and Fog 40 4.4 40 4.4 100 100 ENE 6 9 30.36 1028 3 4 0.00 0.00
12:32 pm 12:32 Cloudy with Mist and Fog 39 4 39 4 100 100 ENE 7 11 30.36 1028 4 6 0.00 0.00
12:41 pm 12:41 Cloudy with Mist and Fog 40 4.4 39 3.9 97 97 ENE 7 11 30.36 1028 5 8 0.00 0.00
12:53 pm 12:53 Cloudy with Mist and Fog 40 4.4 40 4.4 100 100 ENE 8 13 30.27 1025 3 4 0.00 0.00
1:24 pm 13:24 Cloudy with Mist and Fog 39 4 39 4 100 100 E 5 7 30.33 1027 6 10 0.00 0.00
1:37 pm 13:37 Cloudy 40 4.4 39 3.9 97 97 E 5 7 30.27 1025 7 11 0.00 0.00
1:53 pm 13:53 Cloudy 40 4.4 39 3.9 97 97 ENE 3 6 30.24 1024 10 16 0.00 0.00
2:53 pm 14:53 Cloudy with Mist and Fog 41 5 40 4.4 96 96 undefined N/A 30.22 1024 4 6 0.00 0.00
3:14 pm 15:14 Cloudy with Mist and Fog 41 5 39 4 93 93 undefined N/A 30.27 1025 3 4 0.00 0.00
3:53 pm 15:53 Cloudy with Mist and Fog 41 5 41 5 100 100 NNE 3 6 30.21 1023 3 4 0.00 0.00
4:14 pm 16:14 Cloudy with Mist and Fog 41 5 39 4 93 93 ENE 7 11 30.24 1024 4 6 0.00 0.00
4:53 pm 16:53 Cloudy 41 5 41 5 100 100 ENE 9 15 30.19 1023 8 13 0.00 0.00
5:53 pm 17:53 Cloudy 41 5 40 4.4 96 96 E 8 13 30.19 1022 7 11 0.00 0.00
6:27 pm 18:27 Cloudy with Mist and Fog 40 4.4 40 4.4 100 100 ENE 7 11 30.24 1024 2 3 0.00 0.00
6:40 pm 18:40 Cloudy with Mist and Fog 39 4 39 4 100 100 E 8 13 30.27 1025 2 3 0.00 0.00
6:53 pm 18:53 Cloudy with Mist and Fog 40 4.4 40 4.4 100 100 E 6 9 30.20 1023 2 3 0.00 0.00
7:25 pm 19:25 Cloudy with Mist and Fog 40 4.4 40 4.4 100 100 ENE 7 11 30.24 1024 2 3 0.00 0.00
7:53 pm 19:53 Cloudy with Mist and Fog 39 3.9 39 3.9 100 100 E 8 13 30.20 1023 2 3 0.00 0.00
8:29 pm 20:29 Cloudy with Mist and Fog 39 3.9 39 3.9 100 100 E 8 13 30.27 1025 3 5 0.00 0.00
8:42 pm 20:42 Cloudy with Mist and Fog 39 4 39 4 100 100 E 6 9 30.27 1025 3 4 0.00 0.00
8:53 pm 20:53 Cloudy with Mist and Fog 39 3.9 39 3.9 100 100 NE 3 6 30.22 1023 3 5 0.00 0.00
9:53 pm 21:53 Cloudy with Mist and Fog 39 3.9 38 3.3 96 96 ENE 9 15 30.21 1023 3 4 0.00 0.00
10:07 pm 22:07 Cloudy with Light Rain 38 3.3 38 3.3 100 100 ENE 10 17 30.27 1025 4 6 0.00 0.03
10:53 pm 22:53 Cloudy with Light Rain 39 3.9 38 3.3 96 96 ENE 10 17 30.19 1022 4 6 0.02 0.51
11:16 pm 23:16 Cloudy with Light Rain 37 3 37 3 100 100 ENE 13 20 30.24 1024 4 6 0.00 0.00
11:53 pm 23:53 Mostly Clear 39 3.9 38 3.3 96 96 E 16 26 30.09 1019 10 16 0.03 0.76

Powered by AerisWeather